Location: Springfield
(37.2150°N, 93.2980°W)
Time: 04:49:42
(UTC-06:00)

Daily predictions for brighter satellites

Satellite Brightness Start Highest point End
(mag) Time Altitude Azimuth Time Altitude Azimuth Time Altitude Azimuth
Cosmos 2219 Rocket 4.5 04:11:11 16° SE 04:11:11 16° SE 04:12:17 10° SE
CZ-3 R/B 4.2 04:30:34 40° WSW 04:33:02 41° SW 04:43:06 10° SSE
Cosmos 2237 Rocket 2.9 04:36:10 50° ESE 04:36:10 50° ESE 04:40:43 10° SE
SL-16 R/B 4.0 04:35:44 20° NNE 04:38:11 27° ENE 04:42:54 10° ESE
Cosmos 2297 Rocket 2.8 04:46:57 49° NE 04:46:57 49° NE 04:51:05 10° NNE
Aureole 2 Rocket 4.4 04:57:16 33° ENE 04:57:29 34° ENE 05:01:18 10° SE
Cosmos 2227 Rocket 3.4 05:00:39 29° N 05:00:39 29° N 05:03:26 10° NNE
Cosmos 540 Rocket 3.8 04:58:35 60° NE 04:58:55 61° ENE 05:03:57 10° SSE
OAO 2 Rocket 3.6 05:04:02 59° SE 05:04:02 59° SE 05:08:18 10° E
ISS -0.3 05:06:00 13° NE 05:06:00 13° NE 05:06:47 10° ENE
Cosmos 1725 Rocket 3.8 04:59:26 10° S 05:05:40 85° W 05:12:00 10° N
Cosmos 1864 Rocket 4.3 05:00:04 10° S 05:06:10 85° W 05:12:21 10° N
Meteor 1-21 Rocket 4.0 05:10:32 76° NW 05:10:52 79° W 05:16:25 10° S
Meteor 1-4 Rocket 4.1 05:07:32 10° SSE 05:10:56 36° E 05:14:24 10° NNE
Cosmos 1980 3.9 05:22:40 48° SW 05:22:40 48° SW 05:27:27 10° S
Cosmos 2082 4.5 05:27:38 35° NNW 05:27:38 35° NNW 05:31:32 10° N
PSLV R/B 4.3 05:29:54 40° SSE 05:29:54 40° SSE 05:33:05 10° E
Cosmos 2333 Rocket 3.1 05:32:19 30° SW 05:32:19 30° SW 05:35:58 10° SSW
Cosmos 2221 4.5 05:31:03 10° SSE 05:34:51 30° E 05:38:39 10° NNE
Ariane Rocket 3.5 05:30:39 10° NNE 05:35:42 61° ESE 05:40:45 10° S
Thor Agena Rocket 4.4 05:32:54 10° SSW 05:36:33 33° SW 05:36:33 33° SW
Cosmos 1461 3.9 05:40:27 30° SSW 05:40:27 30° SSW 05:43:04 10° S
DMSP B5D1-3 4.4 05:41:56 10° SSE 05:47:04 89° WSW 05:52:13 10° NNW
Cosmos 1743 Rocket 3.6 05:46:44 35° NW 05:48:16 54° W 05:52:32 10° S
Cosmos 1328 3.7 05:45:28 15° N 05:48:44 85° E 05:52:43 10° S
Cosmos 2219 Rocket 4.1 05:52:59 12° SW 05:52:59 12° SW 05:53:44 10° SW
Cosmos 2058 3.7 05:50:15 10° N 05:54:16 52° E 05:58:18 10° SSE
Cosmos 1842 Rocket 3.6 05:51:22 10° SSW 05:55:34 50° W 05:59:49 10° N
COSMO-SKYMED 1 2.7 05:51:45 10° S 05:55:58 50° W 05:58:24 23° NW
Cosmos 2233 Rocket 4.0 05:50:12 10° SSW 05:56:16 54° W 06:02:25 10° N
PAYLOAD A 4.3 05:58:11 10° NNE 06:03:12 67° E 06:08:00 10° S
CZ-2C R/B 3.5 06:00:59 10° NNE 06:05:22 43° E 06:09:42 10° S
Cosmos 968 Rocket 3.7 06:01:49 10° SW 06:06:53 48° WNW 06:11:59 10° N
Cosmos 2227 4.2 06:02:13 10° SSW 06:07:48 86° ESE 06:13:27 10° NNE
CSL-04 Rocket 3.5 06:06:31 10° N 06:11:49 74° WNW 06:17:03 10° SSW
Cosmos 2151 2.9 06:07:44 10° NNW 06:11:56 66° W 06:16:07 10° S
Cosmos 2034 Rocket 4.4 06:07:36 10° S 06:13:41 67° E 06:19:52 10° NNE
SMAP 4.1 06:10:31 10° NNE 06:15:02 48° E 06:19:31 10° S
Cosmos 1500 Rocket 4.1 06:11:48 11° NNW 06:15:42 37° W 06:19:48 10° SSW
Cosmos 773 Rocket 4.3 06:12:39 10° NNW 06:17:57 73° ENE 06:23:13 10° SSE
Cosmos 2237 Rocket 3.6 06:18:05 17° W 06:18:37 17° W 06:22:11 10° SW
Cosmos 1356 Rocket 4.4 06:15:33 10° N 06:19:32 49° E 06:23:33 10° SSE
GPS 2-05 Rocket1 3.3 06:17:45 17° WSW 06:20:02 53° S 06:23:19 10° E
Cosmos 1703 3.8 06:16:55 10° N 06:20:48 60° E 06:24:40 10° SSE
SL-16 R/B 2.7 06:17:40 13° NW 06:22:22 40° WSW 06:27:37 10° S
Tiangong 2 3.8 06:21:23 10° SSW 06:23:43 19° SE 06:26:03 10° E
USA 229 DEB 4.3 06:21:03 13° NW 06:26:59 41° WSW 06:33:39 10° S
USA 229 4.3 06:21:07 13° NW 06:27:05 42° WSW 06:33:46 10° S
Cosmos 2297 Rocket 3.7 06:28:51 15° WNW 06:30:05 15° NW 06:33:22 10° NNW
Cosmos 1340 Rocket 2.8 06:26:54 10° NNW 06:30:45 56° W 06:34:36 10° S
Cosmos 1513 Rocket 4.5 06:26:16 10° S 06:32:30 76° W 06:38:53 10° N
Aureole 2 Rocket 4.4 06:31:11 15° WNW 06:32:40 18° W 06:35:29 10° SW
SPOT 3 Rocket 4.2 06:27:58 10° NNE 06:33:08 63° ESE 06:38:17 10° S
Cosmos 2344 4.3 06:25:42 10° SSW 06:33:13 59° ESE 06:41:16 10° NE
Meteor 1-11 4.5 06:29:19 10° NNW 06:34:56 51° W 06:40:31 10° SSW
Sich 1 3.7 06:30:59 10° N 06:35:17 58° E 06:39:32 10° SSE
Cosmos 1633 Rocket 4.0 06:31:50 10° N 06:36:05 51° E 06:40:18 10° SSE
SJ-12 3.8 06:32:31 10° N 06:36:36 70° WNW 06:40:38 10° SSW
Cosmos 1777 Rocket 4.2 06:32:11 10° SW 06:37:13 49° WNW 06:42:16 10° N
Cosmos 1271 Rocket 3.5 06:34:20 10° SW 06:37:42 29° WNW 06:41:03 10° NNW
DELTA 2 R/B (1) 3.9 06:32:24 10° WSW 06:37:54 68° SSE 06:43:27 10° ENE
Cosmos 1184 Rocket 3.3 06:37:19 10° N 06:40:35 62° E 06:43:51 10° SSE
NOSS 3-1 (A) 4.2 06:33:17 10° NNW 06:41:04 82° ENE 06:49:32 10° SE
ISS -3.4 06:38:40 12° NW 06:41:33 77° SW 06:44:48 10° SE
SL-14 R/B 4.4 06:40:02 10° NW 06:43:24 25° W 06:46:45 10° SW
Cosmos 1464 Rocket 4.2 06:39:11 10° SSW 06:45:18 49° W 06:51:24 10° N
IRS-1A Rocket 4.4 06:39:54 10° N 06:45:40 58° WNW 06:51:21 10° SSW
IDEFIX/ARIANE 42P 2.6 06:40:53 10° N 06:46:08 70° WNW 06:51:21 10° SSW
Meteor 1-4 Rocket 4.5 06:44:50 10° W 06:46:16 12° WNW 06:47:43 10° NW
OAO 2 Rocket 3.7 06:43:12 10° W 06:48:01 58° S 06:52:53 10° ESE
ATLAS 2AS CENTAUR R/B 4.4 06:42:27 10° NNW 06:49:38 34° NE 06:56:24 10° ESE
Cosmos 1484 Rocket 3.6 06:45:50 10° NNE 06:49:49 58° E 06:53:43 10° S
CZ-3 Stage 3 4.0 06:45:13 10° WSW 06:50:14 47° S 07:13:24 10° ESE
YAOGAN 1 2.5 06:48:38 10° N 06:52:58 71° WNW 06:57:15 10° SSW
CZ-4 R/B 1.9 06:52:53 10° N 06:56:39 39° WNW 07:00:28 10° SW
